Location: Gälforsberget
(66.6500°N, 22.4167°E)
Time: 02:02:12
(UTC+00:00)

Cosmos 2278 - Pass Details

Date: 11 April 2026
Orbit: 836 x 852 km, 71.1° (Epoch: 20 May)

Event Time Altitude Azimuth Distance (km) Brightness Sun altitude
Rises 20:21:04 0° 247° (WSW) 3,402 7.0 -11.2°
Reaches altitude 10° 20:23:31 10° 250° (WSW) 2,471 6.3 -11.3°
Maximum altitude 20:29:12 71° 335° (NNW) 901 4.1 -11.6°
Drops below altitude 10° 20:34:55 10° 60° (ENE) 2,488 6.2 -11.9°
Sets 20:37:23 0° 63° (ENE) 3,427 6.9 -12.0°
